Wetbulb
59.21 59.59 59.54 59.10 58.57 58.56 58.90 58.78 58.55 58.88 59.19 59.67 60.00 60.09 60.26 60.14 60.25 55.87 51.97 57.75 60.39 63.56 62.86 57.60 55.70 54.63 55.85 53.81 54.31 53.50 47.90 45.08 44.65 44.35 46.18 48.45 47.16 49.22 50.44 48.43 48.66 50.64 51.19 53.47 57.26
59.08 59.18 59.23 59.03 58.44 58.42 58.57 58.73 58.83 58.71 59.12 59.29 59.52 59.65 60.01 59.07 53.21 51.50 58.57 61.85 62.41 62.42 56.98 54.15 51.62 52.83 52.16 51.56 52.47 51.17 47.88 45.41 47.66 47.95 47.09 47.45 46.57 47.46 47.24 47.36 47.77 48.66 52.16 54.73 56.02
59.06 58.91 58.96 58.92 58.53 58.21 58.36 58.47 58.73 58.84 58.80 59.01 59.39 59.51 59.67 58.03 49.62 49.85 61.28 61.58 61.61 60.56 57.33 55.35 53.02 52.17 49.84 50.96 49.53 49.03 46.37 47.24 47.03 48.25 48.52 46.99 46.65 48.80 47.28 45.86 48.31 47.94 50.34 53.51 54.53
59.25 58.84 58.65 58.82 58.46 58.02 58.24 58.11 58.28 58.73 58.45 58.79 59.47 59.90 58.80 55.51 44.29 52.89 60.59 60.20 60.07 58.02 55.62 53.08 51.66 49.80 48.40 46.75 48.31 45.25 46.90 47.63 47.92 47.69 47.14 45.85 47.82 46.37 46.86 47.68 50.02 50.67 51.23 53.58 53.22
59.25 58.79 58.60 58.39 58.47 58.25 57.97 58.01 58.19 58.44 58.75 59.23 60.00 58.78 53.01 49.95 48.74 55.36 60.84 59.69 56.57 55.92 53.90 51.90 49.65 49.88 46.87 46.87 47.99 46.28 46.00 47.09 47.17 47.17 47.25 47.65 46.39 46.27 46.55 48.78 49.85 50.30 51.14 52.30 52.78
59.12 58.49 58.31 58.18 58.24 58.18 58.11 57.86 57.91 58.60 58.62 59.22 59.52 55.52 52.76 46.39 54.57 56.18 55.54 55.62 55.41 55.09 53.89 53.41 50.75 51.52 48.58 47.10 47.02 47.24 47.16 46.88 47.42 46.66 46.88 45.02 45.65 45.15 46.46 49.29 48.73 49.34 49.68 50.80 51.81
58.69 58.06 57.91 57.78 58.01 57.61 57.90 58.24 58.16 58.03 58.26 58.79 58.16 53.70 51.75 48.08 54.97 55.98 55.61 54.35 55.16 54.95 51.62 52.43 53.04 51.45 49.92 46.58 48.65 47.67 44.99 46.13 45.07 45.48 45.20 45.41 42.53 42.73 46.17 47.83 47.55 47.62 48.67 50.06 52.03
58.37 57.67 57.52 57.41 57.36 57.36 57.30 57.90 57.43 56.94 57.48 56.62 56.66 54.56 48.80 53.71 56.42 54.49 55.79 54.69 55.58 55.26 53.28 52.80 52.81 50.79 49.33 48.25 45.53 44.35 44.63 42.76 43.32 44.83 45.02 45.19 41.32 43.23 46.54 46.16 45.76 46.51 47.95 49.85 51.19
58.22 57.41 57.04 56.72 57.38 56.85 56.77 57.40 56.44 56.38 56.27 55.11 54.23 53.49 47.93 54.72 51.60 53.77 54.44 51.71 53.36 53.16 52.59 51.28 52.19 49.19 48.43 46.07 44.23 45.10 41.97 41.52 42.10 44.17 43.66 44.11 42.48 44.21 46.61 45.59 44.86 45.34 47.99 49.44 49.62
58.24 57.31 56.71 56.52 56.48 55.94 55.98 56.35 56.36 54.86 56.28 52.14 52.79 51.07 50.32 47.88 51.41 51.97 54.52 52.96 51.15 51.60 51.55 50.93 50.77 48.23 47.55 46.72 41.22 40.10 41.04 41.81 40.91 42.72 43.15 42.77 42.49 44.15 44.78 44.66 44.29 45.65 47.83 48.70 47.88
57.83 57.26 56.71 55.85 55.49 55.49 55.78 55.96 52.88 52.85 51.55 47.02 46.85 47.19 47.85 51.21 52.55 51.34 52.33 51.53 51.59 50.18 46.99 48.44 46.89 42.54 42.53 43.14 42.29 41.41 40.60 40.52 43.11 41.49 40.97 41.97 41.19 41.31 43.19 43.98 44.25 45.73 46.75 44.97 44.56
57.32 56.82 56.27 55.20 54.85 55.33 56.98 51.76 50.59 52.93 46.36 48.61 47.83 48.06 48.68 49.89 47.60 49.83 53.27 49.25 49.27 45.44 46.49 46.83 42.13 43.15 43.12 42.97 41.15 40.57 40.06 41.09 42.06 41.20 40.87 41.30 40.18 40.76 41.95 41.98 43.62 44.60 45.05 43.20 44.83
56.88 56.43 55.61 54.39 53.36 56.06 53.68 51.18 54.49 53.59 49.71 46.55 47.42 47.41 47.37 49.36 45.83 46.56 49.73 47.91 46.81 45.36 45.51 44.27 42.05 43.16 41.89 42.25 41.30 39.93 38.50 38.06 36.98 40.47 41.53 39.20 39.52 38.89 40.93 42.85 43.92 44.41 44.04 44.35 44.90
56.59 56.12 54.94 53.74 53.38 52.43 51.10 52.41 54.62 54.61 47.24 44.45 45.83 47.35 48.51 48.14 45.19 48.71 48.86 47.43 46.22 43.37 43.88 42.77 42.97 41.64 40.88 40.31 40.51 38.80 39.56 38.63 37.63 36.72 36.61 39.91 35.81 38.93 40.16 40.45 42.07 42.88 42.81 44.23 45.30
56.17 55.69 54.20 54.07 51.91 50.86 50.59 53.20 54.44 53.42 42.74 44.94 45.44 50.29 48.44 46.43 45.26 46.80 48.75 49.05 44.08 42.28 43.80 40.85 41.30 40.81 40.43 39.43 40.62 39.08 39.79 37.89 37.48 36.58 36.01 36.83 35.07 37.76 39.60 38.62 40.67 43.05 44.68 45.40 45.45
55.84 54.94 53.26 52.64 53.81 50.57 53.06 53.86 53.83 45.77 38.08 42.09 44.88 44.04 45.43 46.11 45.23 47.14 47.23 48.84 46.65 44.09 44.44 41.52 44.48 42.76 40.95 41.47 40.59 41.27 39.38 38.95 38.02 37.42 32.74 36.36 35.23 37.20 38.32 39.39 40.11 42.83 44.00 44.57 44.28
55.57 53.67 52.73 51.64 51.14 52.49 54.02 53.40 45.51 42.21 42.44 40.78 41.46 42.83 43.96 42.52 44.00 43.66 43.11 42.22 41.64 39.83 40.48 41.15 40.28 41.75 41.28 39.63 41.06 41.64 39.28 35.67 33.75 33.52 32.59 35.00 32.38 36.70 38.34 39.08 39.93 40.54 43.39 44.47 43.72
54.95 51.22 51.11 50.50 53.79 53.54 52.77 48.86 40.83 41.14 40.77 41.59 41.28 42.23 41.88 41.60 41.58 42.32 42.02 41.11 42.46 41.23 40.68 37.82 37.80 39.11 40.95 38.98 36.39 37.46 37.22 34.50 26.26 29.50 31.99 34.26 29.07 36.07 39.17 40.70 41.70 41.68 44.05 44.13 42.05
53.82 55.75 54.34 53.13 52.90 53.34 50.67 44.54 43.58 41.50 41.45 40.91 40.79 41.08 40.54 41.26 40.92 42.41 40.75 39.55 39.55 40.41 38.65 36.94 37.78 39.21 39.34 40.32 38.92 37.45 36.47 37.33 32.53 33.95 28.17 34.10 36.62 36.11 38.42 39.17 40.20 40.84 41.28 41.43 42.07
54.95 55.01 54.05 51.76 52.52 51.65 48.29 42.41 40.75 41.31 41.70 41.38 40.15 40.47 40.81 41.17 42.02 42.29 39.99 39.35 38.49 40.00 40.96 37.68 34.91 38.03 37.78 40.13 39.60 37.92 39.03 33.27 34.12 26.53 25.09 32.75 34.11 33.81 34.51 36.68 38.80 38.77 39.30 40.65 39.50
54.89 52.03 53.16 52.09 51.84 50.13 45.92 42.80 40.38 41.91 42.25 40.91 41.13 40.02 41.05 40.42 40.94 40.09 38.56 38.73 40.39 39.38 41.69 39.28 36.18 36.76 37.82 36.58 36.10 36.75 35.83 35.11 34.60 33.18 27.65 26.56 31.78 37.34 36.81 36.89 37.39 39.44 39.61 38.79 37.72
53.69 47.41 53.10 51.94 48.48 46.44 43.35 41.66 41.35 41.08 42.50 41.62 42.39 42.01 42.14 41.15 40.88 40.23 38.76 39.69 41.54 41.07 37.97 38.87 37.32 33.86 37.83 37.42 38.04 37.20 35.86 36.12 31.82 30.42 31.61 29.07 29.09 37.87 37.42 37.63 38.10 38.11 37.80 37.81 36.88
50.79 51.47 54.29 51.92 45.41 43.74 41.23 40.75 41.94 40.68 41.34 41.44 41.03 41.99 41.59 41.01 39.14 40.04 39.43 40.55 41.39 40.39 39.50 40.62 37.06 33.38 36.01 34.25 35.87 34.08 35.85 36.39 35.84 33.51 28.59 27.39 31.37 37.61 37.53 37.26 37.69 36.15 36.83 36.49 35.84
50.18 46.17 50.76 49.61 46.08 46.15 41.45 41.15 39.63 41.39 41.30 41.82 41.47 41.65 41.08 40.49 40.79 39.59 39.40 39.23 40.67 40.41 39.52 40.05 37.70 35.19 32.04 35.64 38.04 34.50 36.79 36.95 33.65 28.12 29.59 30.63 33.05 37.41 38.76 37.47 37.66 35.68 35.36 35.44 35.18
49.88 46.62 45.43 45.96 45.12 45.70 45.43 43.51 40.62 39.30 41.68 42.44 40.19 41.84 42.23 40.15 40.04 39.22 40.66 38.51 39.15 40.05 39.08 36.81 32.94 35.51 36.44 36.31 35.24 34.32 34.27 34.98 33.14 33.63 28.29 31.71 32.35 36.45 38.39 34.92 33.84 34.43 34.57 33.61 32.96
47.81 46.11 44.80 44.93 43.87 44.75 42.88 42.59 42.83 41.31 41.36 39.92 39.73 42.77 42.90 42.53 43.48 41.63 42.32 40.62 40.79 38.71 36.90 37.03 32.14 30.82 28.44 33.52 33.60 32.01 33.90 34.19 34.22 34.10 33.63 34.17 33.26 38.86 33.94 33.98 33.26 33.87 33.43 32.22 31.20
47.95 46.95 48.31 41.23 44.23 45.07 45.76 44.70 43.97 44.52 43.07 44.21 43.77 42.86 41.09 43.56 44.78 42.62 44.07 41.85 41.55 38.81 35.41 32.42 31.30 27.64 27.26 29.30 28.22 27.20 32.08 32.83 33.48 34.13 33.38 29.34 33.21 32.88 32.88 33.21 32.81 32.36 32.39 31.14 29.38
MSLP
1018.30 1018.09 1017.85 1017.71 1017.56 1017.47 1017.22 1016.98 1016.83 1016.68 1016.55 1016.37 1016.21 1016.04 1015.90 1015.58 1014.79 1014.63 1014.90 1016.07 1015.50 1014.96 1014.68 1013.35 1012.80 1012.42 1012.09 1012.15 1012.20 1011.86 1010.80 1010.71 1011.60 1011.95 1012.74 1013.72 1013.66 1014.18 1014.48 1014.20 1014.43 1014.72 1015.16 1016.09 1016.75
1018.47 1018.21 1017.98 1017.80 1017.71 1017.57 1017.40 1017.18 1017.08 1016.87 1016.69 1016.56 1016.38 1016.15 1015.99 1015.75 1014.95 1014.70 1015.99 1015.63 1015.30 1014.86 1013.75 1013.01 1012.36 1012.08 1011.80 1012.18 1012.30 1011.77 1011.36 1012.24 1013.05 1013.36 1013.42 1014.01 1014.25 1014.35 1014.49 1014.27 1014.37 1014.97 1016.00 1016.45 1017.07
1018.63 1018.35 1018.09 1017.85 1017.71 1017.59 1017.51 1017.31 1017.14 1017.04 1016.85 1016.66 1016.44 1016.27 1016.06 1015.76 1014.99 1015.12 1015.67 1015.44 1015.07 1014.67 1014.08 1013.52 1012.95 1012.35 1012.20 1012.50 1012.94 1012.88 1012.73 1013.66 1014.26 1014.64 1014.67 1014.74 1014.81 1015.04 1014.82 1014.41 1014.96 1015.31 1015.57 1016.80 1017.29
1018.74 1018.46 1018.14 1017.92 1017.77 1017.48 1017.26 1017.13 1016.98 1016.91 1016.74 1016.64 1016.48 1016.27 1016.11 1015.59 1015.46 1015.53 1015.73 1015.53 1015.16 1014.58 1014.05 1013.46 1012.99 1012.46 1012.48 1012.84 1013.48 1013.62 1014.32 1014.40 1015.11 1015.61 1015.47 1015.34 1015.53 1015.32 1015.62 1015.63 1016.04 1016.25 1016.34 1016.93 1017.28
1018.75 1018.53 1018.31 1017.97 1017.78 1017.58 1017.36 1017.11 1016.94 1016.80 1016.64 1016.51 1016.40 1016.21 1016.12 1015.23 1015.80 1015.80 1015.81 1015.38 1014.89 1014.58 1014.12 1013.49 1012.94 1012.76 1012.87 1013.52 1013.62 1014.01 1014.87 1015.29 1015.80 1016.06 1016.09 1016.24 1016.00 1016.07 1016.12 1016.66 1016.53 1016.71 1016.83 1016.96 1017.43
1018.88 1018.62 1018.39 1018.08 1017.73 1017.56 1017.37 1017.22 1017.03 1016.84 1016.65 1016.37 1016.16 1015.93 1015.44 1015.51 1016.28 1016.05 1015.91 1015.42 1015.19 1014.47 1014.38 1013.89 1013.66 1013.32 1013.47 1013.97 1013.96 1014.64 1015.04 1015.61 1016.05 1016.25 1016.43 1016.46 1016.18 1016.71 1017.02 1016.88 1016.78 1016.88 1017.08 1017.40 1017.84
1018.95 1018.71 1018.34 1018.11 1017.84 1017.46 1017.28 1017.19 1016.97 1016.69 1016.46 1016.18 1015.90 1015.30 1015.21 1016.52 1016.25 1016.15 1015.85 1015.78 1015.51 1015.05 1014.69 1014.89 1014.48 1013.95 1013.90 1014.54 1015.09 1015.10 1015.25 1015.64 1016.02 1016.28 1016.32 1016.77 1016.49 1016.96 1017.50 1017.24 1017.10 1017.46 1017.83 1018.15 1018.63
1019.15 1018.64 1018.38 1018.07 1017.83 1017.46 1017.23 1016.98 1016.83 1016.68 1016.44 1016.14 1015.84 1015.09 1015.57 1016.39 1016.09 1016.08 1015.72 1015.53 1015.48 1015.37 1015.27 1015.27 1014.87 1014.57 1014.62 1015.11 1015.04 1014.77 1014.92 1014.66 1016.08 1016.31 1016.62 1016.68 1016.16 1017.32 1017.85 1017.84 1017.45 1017.81 1018.34 1018.83 1019.26
1019.35 1018.82 1018.34 1018.07 1017.66 1017.53 1017.23 1017.01 1016.76 1016.50 1016.31 1016.01 1015.61 1015.02 1015.72 1016.36 1016.23 1016.31 1016.21 1015.86 1015.63 1015.36 1015.31 1015.20 1014.81 1014.72 1014.98 1014.34 1014.15 1014.25 1014.01 1014.85 1015.72 1016.62 1016.79 1016.68 1016.30 1017.36 1018.27 1018.27 1017.99 1018.12 1018.49 1019.43 1020.29
1019.49 1018.97 1018.35 1017.98 1017.76 1017.38 1017.28 1016.79 1016.50 1016.38 1015.93 1015.75 1015.49 1015.47 1016.08 1016.62 1016.75 1016.74 1016.42 1016.30 1015.68 1015.31 1015.04 1014.78 1014.52 1014.40 1014.61 1014.21 1014.53 1014.80 1014.68 1015.15 1015.75 1016.59 1016.88 1016.61 1016.75 1017.44 1018.74 1018.80 1018.70 1018.69 1019.19 1019.90 1021.08
1019.72 1019.10 1018.51 1017.97 1017.73 1017.51 1017.04 1016.65 1016.67 1016.40 1016.51 1017.08 1017.13 1016.79 1016.80 1017.01 1016.96 1016.56 1016.60 1016.15 1015.53 1015.07 1014.70 1015.14 1014.93 1015.51 1016.19 1016.28 1016.22 1016.06 1015.83 1015.58 1015.71 1017.24 1017.30 1016.72 1017.34 1018.29 1019.19 1019.29 1019.33 1019.51 1020.08 1021.52 1022.20
1019.79 1019.28 1018.60 1018.02 1017.57 1017.46 1017.00 1017.03 1018.07 1018.14 1017.91 1017.67 1017.47 1017.29 1017.40 1017.47 1016.74 1016.62 1016.46 1015.97 1015.32 1015.23 1015.51 1015.63 1016.31 1017.45 1017.74 1017.45 1017.18 1016.78 1016.47 1016.14 1016.51 1017.36 1017.51 1016.76 1017.21 1018.58 1019.48 1020.10 1020.36 1020.55 1021.28 1022.30 1022.56
1019.88 1019.34 1018.69 1018.04 1017.54 1017.47 1017.96 1018.80 1019.08 1018.57 1017.49 1017.79 1017.66 1017.47 1017.67 1017.61 1017.45 1017.42 1017.17 1016.65 1016.20 1015.97 1015.81 1016.15 1017.95 1018.50 1018.52 1017.99 1017.52 1017.48 1017.68 1017.85 1018.11 1017.65 1017.33 1017.22 1016.81 1018.08 1019.46 1020.25 1021.03 1021.61 1022.27 1022.54 1022.51
1020.06 1019.40 1018.71 1018.17 1017.79 1018.16 1018.76 1019.40 1019.24 1019.00 1017.81 1017.76 1017.40 1017.72 1017.69 1017.69 1017.79 1018.16 1018.05 1017.76 1016.98 1016.93 1017.20 1017.72 1018.69 1018.82 1018.82 1018.81 1018.97 1018.45 1019.03 1019.00 1018.69 1018.38 1017.21 1017.37 1016.54 1017.04 1018.47 1019.61 1020.58 1021.45 1021.97 1022.14 1022.39
1020.22 1019.50 1019.12 1017.97 1018.02 1018.36 1019.34 1019.54 1019.12 1018.84 1018.12 1018.14 1017.65 1017.72 1017.64 1017.56 1018.22 1018.04 1018.48 1017.37 1017.54 1017.85 1018.05 1018.81 1019.04 1019.24 1019.19 1019.62 1019.78 1019.54 1019.75 1019.43 1019.04 1018.58 1018.28 1017.34 1017.33 1016.81 1017.91 1018.57 1019.55 1020.45 1021.01 1021.61 1022.20
1020.34 1019.46 1019.29 1018.61 1018.30 1019.31 1019.25 1019.37 1018.85 1018.54 1017.93 1017.93 1017.76 1017.89 1017.58 1017.76 1017.96 1017.87 1018.00 1018.10 1018.49 1018.13 1018.32 1019.20 1019.90 1019.90 1020.10 1020.26 1020.38 1020.18 1019.68 1019.30 1019.11 1018.45 1017.94 1017.12 1017.28 1015.80 1016.83 1017.77 1019.03 1019.98 1020.77 1021.48 1022.24
1020.25 1019.76 1019.37 1019.07 1019.15 1019.32 1019.13 1018.81 1018.39 1017.92 1018.33 1018.11 1018.10 1018.03 1017.86 1018.04 1018.02 1018.13 1018.23 1018.47 1018.68 1018.68 1018.60 1019.35 1019.84 1020.42 1020.76 1020.32 1020.37 1019.88 1019.26 1018.78 1018.46 1018.16 1017.16 1017.64 1017.83 1016.45 1017.70 1018.62 1019.22 1019.80 1020.56 1021.34 1022.16
1020.26 1019.92 1019.54 1019.84 1019.35 1019.39 1018.75 1018.34 1018.02 1017.82 1017.87 1018.55 1018.47 1018.28 1018.08 1018.79 1018.76 1018.65 1018.58 1018.89 1019.54 1019.39 1019.44 1019.61 1020.11 1020.56 1021.01 1020.88 1020.82 1020.35 1020.18 1020.02 1019.32 1018.11 1017.46 1017.70 1017.41 1017.02 1018.50 1019.48 1020.04 1020.44 1020.60 1021.20 1022.30
1020.00 1019.15 1019.28 1019.61 1019.34 1019.21 1018.47 1017.78 1017.98 1018.24 1018.50 1018.61 1018.59 1018.21 1018.37 1018.81 1018.99 1018.68 1019.21 1019.70 1020.52 1020.57 1020.38 1020.40 1020.30 1021.10 1021.44 1021.50 1021.51 1020.67 1020.32 1020.90 1020.16 1019.08 1018.78 1016.91 1016.76 1018.04 1018.97 1019.73 1020.38 1020.76 1021.21 1021.71 1022.26
1019.63 1019.08 1019.05 1019.51 1019.33 1018.77 1018.02 1017.89 1018.65 1019.13 1019.08 1019.07 1018.42 1018.54 1018.05 1018.49 1018.59 1018.67 1019.42 1020.82 1021.16 1021.61 1021.44 1021.28 1021.16 1021.18 1021.81 1022.00 1021.88 1021.35 1021.27 1021.00 1020.54 1019.68 1018.37 1016.64 1016.46 1017.12 1018.76 1019.56 1020.28 1020.86 1021.41 1021.88 1022.72
1019.69 1018.70 1019.18 1019.38 1019.01 1018.48 1017.64 1018.28 1019.06 1019.57 1019.58 1019.38 1018.79 1018.65 1018.60 1018.77 1019.02 1019.20 1020.03 1021.31 1021.57 1021.88 1021.84 1021.88 1022.10 1021.53 1021.65 1021.55 1021.32 1021.63 1021.18 1021.26 1021.11 1020.60 1019.82 1018.00 1017.09 1018.08 1018.77 1019.83 1020.35 1020.73 1021.38 1022.24 1022.99
1019.50 1018.73 1019.15 1019.00 1018.68 1018.37 1017.96 1018.60 1019.44 1019.61 1019.77 1019.69 1019.40 1019.08 1018.88 1019.27 1019.23 1019.57 1020.27 1021.28 1022.07 1022.28 1022.24 1022.70 1022.54 1021.72 1020.97 1021.85 1022.14 1021.94 1021.46 1021.38 1021.21 1021.02 1021.10 1020.91 1018.36 1018.79 1019.64 1020.43 1021.06 1021.55 1022.32 1022.93 1023.49
1019.06 1018.50 1018.79 1018.51 1017.94 1017.85 1018.61 1018.90 1019.31 1019.64 1019.60 1019.72 1019.51 1019.57 1019.77 1019.60 1019.83 1020.12 1020.88 1021.99 1022.44 1022.60 1022.63 1022.81 1022.78 1021.95 1021.05 1022.43 1022.48 1022.24 1022.09 1022.12 1022.23 1022.36 1021.46 1021.21 1018.48 1019.28 1020.07 1020.65 1021.32 1022.12 1022.55 1023.04 1023.63
1019.22 1018.27 1018.12 1017.90 1017.70 1017.09 1017.71 1018.41 1019.20 1019.89 1019.74 1019.84 1019.76 1019.94 1019.90 1019.90 1020.20 1020.43 1021.07 1022.16 1022.72 1023.04 1023.59 1023.59 1023.26 1023.05 1022.47 1021.78 1021.92 1022.02 1021.82 1021.93 1022.34 1022.05 1020.92 1019.63 1018.37 1018.59 1018.94 1019.91 1020.60 1021.83 1022.77 1023.38 1023.82
1019.12 1017.97 1018.52 1017.55 1017.09 1016.96 1017.09 1017.84 1018.33 1019.35 1019.71 1019.73 1019.72 1019.65 1019.64 1019.71 1020.10 1020.47 1021.07 1022.14 1022.97 1023.54 1024.08 1024.30 1023.95 1023.50 1022.93 1022.51 1022.29 1021.87 1021.36 1021.47 1021.42 1020.94 1021.00 1018.61 1019.06 1018.72 1019.44 1020.52 1021.60 1022.44 1023.00 1023.47 1023.96
1018.89 1018.38 1018.68 1017.95 1017.58 1017.11 1017.37 1017.47 1017.55 1018.57 1018.85 1019.14 1019.24 1019.12 1019.68 1019.47 1019.44 1019.86 1020.57 1021.44 1022.10 1023.73 1024.44 1024.84 1024.67 1024.61 1023.85 1023.05 1022.68 1021.89 1020.72 1020.97 1020.82 1020.43 1020.13 1019.41 1018.75 1019.20 1020.71 1021.64 1022.30 1022.66 1023.12 1023.72 1024.34
1019.34 1018.96 1018.21 1017.83 1017.49 1017.24 1016.69 1016.83 1017.28 1017.99 1018.79 1018.83 1018.91 1019.30 1019.88 1020.04 1020.17 1020.74 1020.99 1021.70 1022.34 1023.32 1024.39 1025.29 1025.45 1025.60 1023.99 1023.63 1023.22 1021.63 1019.67 1019.87 1019.86 1019.80 1019.77 1019.39 1019.44 1020.70 1021.29 1021.98 1022.60 1023.16 1023.71 1024.20 1025.00
Wind_Speed
11 9 7 5 3 2 2 3 3 4 5 7 7 8 8 9 10 5 12 11 11 18 14 7 5 0 1 4 4 3 4 3 3 2 6 4 2 2 3 5 0 3 6 5 10
11 10 7 5 3 3 2 2 4 4 5 5 6 8 7 6 3 14 9 15 14 13 5 5 1 2 3 3 3 4 3 5 5 6 4 3 2 3 3 2 4 3 5 4 7
13 10 8 6 4 3 2 2 3 5 6 7 8 7 5 5 3 7 16 17 15 9 5 4 2 2 4 4 5 5 4 6 4 5 4 3 2 3 5 2 9 9 3 5 5
14 12 9 8 4 3 4 3 3 4 4 6 7 7 5 5 1 9 17 15 11 6 3 1 3 2 3 4 3 6 4 3 3 4 1 1 4 3 4 8 8 7 6 6 5
15 14 11 8 6 5 5 5 4 4 5 6 6 5 4 4 6 11 12 10 3 2 4 2 2 1 4 5 8 9 5 5 4 2 2 3 2 5 4 8 5 4 2 5 4
17 14 12 10 7 7 6 5 6 6 7 7 6 4 5 3 6 11 10 6 10 7 7 6 5 5 7 4 2 5 6 6 2 2 2 4 1 4 8 6 2 2 2 2 3
17 16 13 11 10 6 6 5 6 6 7 7 7 4 14 5 4 9 6 5 6 7 6 6 2 1 3 6 4 6 6 5 3 4 1 4 6 5 5 7 3 3 4 3 5
18 15 14 12 11 8 6 4 4 7 7 8 6 5 5 1 5 9 8 3 6 5 5 2 4 7 5 6 5 4 4 4 4 6 1 6 6 4 8 10 6 1 4 5 7
20 16 14 13 10 9 6 5 5 4 5 6 3 5 4 3 4 9 7 4 4 2 3 0 1 4 4 4 5 4 4 4 5 4 4 5 8 4 10 7 3 3 6 8 8
19 17 14 11 11 8 8 4 3 4 5 3 0 3 3 5 5 7 6 5 2 2 2 2 1 5 8 2 1 5 5 3 4 5 7 8 4 6 7 5 2 4 6 7 8
20 18 14 10 9 10 6 4 4 3 10 6 4 3 2 8 2 7 5 5 2 0 1 5 5 6 7 7 3 1 3 6 6 3 10 1 5 4 4 5 3 5 6 7 5
19 19 16 11 5 9 4 3 4 4 7 2 1 2 2 4 2 14 12 2 3 3 1 3 6 4 3 5 3 1 4 7 4 2 7 4 7 4 3 3 2 3 7 5 5
19 19 18 11 4 3 5 4 5 6 0 2 2 3 4 6 5 10 10 2 5 7 7 3 6 2 3 4 6 1 5 8 7 13 5 9 6 9 5 4 4 4 4 5 5
19 19 17 14 1 1 3 2 4 5 4 2 1 3 1 2 2 5 7 4 3 4 5 6 3 1 1 3 6 4 5 8 10 7 4 5 3 8 9 6 5 7 6 5 4
19 17 15 12 4 2 3 3 3 3 3 3 3 2 1 2 3 6 3 1 5 4 3 4 1 1 1 4 5 5 9 6 5 5 6 5 5 8 6 7 7 6 6 6 4
17 16 14 3 3 3 1 2 3 2 7 3 1 4 3 4 3 3 3 5 1 1 8 4 2 2 4 4 3 8 6 5 4 4 4 5 4 3 6 4 4 6 6 5 5
16 11 8 3 2 2 1 3 3 4 1 3 2 2 3 4 3 5 4 8 3 2 1 5 3 3 2 4 2 8 7 3 3 3 3 4 6 8 5 3 1 2 7 6 4
16 8 4 3 1 3 2 4 5 1 1 2 0 1 1 6 3 3 2 4 8 5 2 2 3 1 4 3 2 3 5 1 6 4 10 4 7 3 4 1 0 4 4 4 5
14 2 2 2 1 2 4 3 3 1 3 3 2 3 3 2 2 1 5 4 5 9 5 5 2 4 3 1 2 3 1 3 6 2 4 5 5 5 4 5 3 4 4 6 4
4 2 2 2 1 1 5 1 2 1 2 2 3 2 2 2 3 1 1 2 3 4 4 3 6 2 3 2 3 3 2 4 4 6 7 6 11 7 7 6 6 6 6 5 3
3 3 4 1 1 4 3 3 3 3 0 1 1 2 2 2 1 1 3 3 1 2 4 3 1 3 2 4 2 3 3 4 4 3 5 9 4 5 4 1 4 5 2 2 4
3 4 3 1 3 1 3 4 3 5 2 2 0 2 0 2 2 2 2 4 2 0 3 3 4 5 5 3 2 4 4 5 3 2 6 3 10 4 5 2 2 2 2 5 6
3 2 2 2 4 4 4 4 2 5 5 5 3 1 1 2 2 2 3 3 4 3 1 3 2 6 3 4 2 3 4 5 5 4 12 9 6 5 4 4 3 6 9 6 7
3 3 3 2 1 3 6 5 5 0 4 2 3 2 4 3 0 4 5 4 5 3 2 1 3 8 8 13 8 11 14 11 9 7 11 19 23 19 13 8 7 7 5 7 9
3 1 3 3 5 4 5 10 8 7 3 5 4 7 5 4 4 3 4 5 5 4 3 3 6 9 17 15 13 16 19 18 18 19 14 22 21 20 18 9 4 4 6 8 11
3 4 3 1 2 7 5 9 10 6 9 6 5 10 9 6 6 4 7 5 5 7 6 4 3 2 5 16 16 19 23 19 18 20 22 24 25 15 5 1 5 7 8 11 10
1 1 4 4 4 6 6 8 11 10 5 1 7 6 10 8 3 3 3 4 2 5 9 5 3 2 5 1 8 15 12 12 10 8 9 11 6 3 5 6 7 8 9 9 9
Wind_Direction
16 21 19 19 358 354 348 350 352 340 344 343 348 354 358 335 296 75 45 339 317 316 313 269 236 28 82 71 15 310 243 154 92 167 97 119 245 88 7 294 36 33 358 38 112
16 13 13 11 2 338 316 334 329 325 327 330 333 335 338 324 317 47 3 341 331 328 294 344 82 315 101 56 19 337 286 53 20 44 97 108 316 13 287 193 236 202 103 134 153
12 13 6 359 359 327 292 298 317 320 327 327 324 319 310 271 239 21 2 343 338 326 319 328 330 334 73 36 10 22 51 122 83 55 15 35 297 349 320 307 36 350 52 158 158
10 7 9 356 339 299 277 255 254 295 309 317 315 309 298 228 14 5 350 337 326 318 284 330 234 184 78 65 40 116 66 43 99 52 22 3 342 286 354 9 334 334 334 146 180
8 6 1 0 340 314 295 287 281 291 304 316 317 296 241 99 30 346 339 339 333 2 26 27 83 92 104 101 84 91 104 82 86 72 357 329 293 350 28 357 0 21 122 173 173
6 3 359 352 348 332 305 293 303 315 317 320 326 303 253 74 336 349 348 359 19 36 43 38 66 67 89 78 34 116 122 112 120 82 69 317 338 263 40 354 64 129 122 133 142
8 1 358 351 339 332 319 307 305 312 317 315 328 301 64 53 356 358 14 16 5 21 63 37 15 249 139 116 99 135 124 144 80 358 100 335 176 99 11 349 68 88 105 116 103
1 6 358 349 340 325 310 285 299 309 321 316 298 266 75 84 346 19 4 60 45 52 78 8 7 88 26 115 149 196 229 220 81 355 107 303 114 113 8 337 312 138 126 126 101
356 358 1 349 346 330 307 297 321 274 316 299 260 288 82 145 6 1 14 356 314 56 75 55 46 75 166 211 178 177 1 2 140 54 327 354 326 106 18 349 343 234 148 120 110
352 351 355 356 348 342 300 275 308 224 261 248 157 189 69 358 337 330 358 330 326 278 198 44 79 111 43 288 76 339 344 353 328 34 341 302 272 16 12 1 37 134 138 135 88
348 344 346 351 7 346 311 246 214 151 41 42 2 37 19 336 278 24 349 312 263 67 61 32 79 75 55 35 43 342 301 303 338 79 328 356 305 42 8 25 89 115 121 94 143
349 342 340 340 351 333 298 339 28 34 103 56 28 81 8 340 315 22 347 324 34 67 319 137 78 50 42 15 347 317 319 356 332 157 319 291 305 131 73 67 49 139 111 153 162
348 342 337 337 329 46 45 58 339 322 279 92 47 7 359 331 39 0 357 346 29 57 48 33 68 49 298 3 341 131 355 341 307 317 228 280 201 186 144 130 123 71 138 177 173
344 343 336 325 130 80 55 17 335 329 231 89 107 68 356 337 80 358 11 340 58 76 44 64 68 331 298 12 332 281 23 318 304 314 309 333 293 185 165 161 176 162 181 189 170
341 343 337 357 113 100 80 320 342 255 303 67 70 22 33 33 335 48 329 272 52 75 255 88 93 350 301 3 337 9 327 314 306 271 307 182 257 103 165 191 186 189 178 179 175
341 342 327 273 74 68 108 259 218 220 252 116 12 344 197 42 65 338 59 68 53 113 60 84 84 1 6 322 290 318 294 262 260 253 243 109 314 252 165 143 154 173 198 186 197
339 335 343 311 45 160 163 226 212 224 118 119 52 27 78 32 58 22 64 53 31 81 90 157 132 113 348 276 216 302 282 302 251 214 297 120 282 286 120 130 272 229 201 191 191
331 312 46 353 129 241 199 228 241 15 94 74 111 100 74 350 55 31 149 108 48 342 55 320 205 0 11 39 323 352 341 2 295 294 307 133 240 107 97 81 346 213 203 165 211
317 168 218 354 314 270 242 213 311 54 53 172 175 221 132 136 305 196 47 68 35 7 5 345 168 132 54 358 299 67 233 13 285 265 279 228 214 175 167 158 151 166 183 209 228
318 261 179 337 299 233 244 180 186 112 124 222 246 287 183 81 221 330 104 55 101 15 336 48 292 72 110 211 82 321 60 232 193 302 300 264 276 277 183 196 213 219 225 227 242
249 245 87 166 249 226 242 129 146 140 81 279 154 147 83 118 351 87 75 116 91 67 13 360 286 127 199 198 9 193 204 225 293 252 284 308 289 21 78 314 291 235 224 267 282
291 235 120 110 194 250 164 142 123 158 155 151 202 84 262 164 143 116 95 62 119 39 35 60 332 283 301 93 328 279 280 273 275 215 238 265 273 97 112 90 344 1 303 296 299
259 285 150 180 227 179 139 124 194 158 176 174 149 326 252 167 201 140 137 126 170 193 142 122 146 302 185 161 153 247 195 257 291 286 249 257 267 147 160 197 218 286 303 288 289
273 241 161 201 203 198 161 172 157 168 144 155 114 144 169 180 221 162 173 162 184 217 93 229 233 238 260 293 310 266 260 244 235 244 261 245 275 275 285 275 338 331 281 287 308
226 177 360 203 193 193 185 165 151 172 212 188 155 222 200 176 185 219 171 160 191 177 166 223 240 245 258 276 280 268 271 267 256 246 248 273 279 288 306 349 343 315 295 305 312
255 207 183 141 185 173 178 198 181 159 165 184 218 180 201 221 220 218 194 195 217 170 184 192 254 357 276 261 266 274 263 262 257 259 259 267 276 303 63 6 292 304 314 316 322
158 229 279 116 184 211 200 175 187 162 195 8 196 161 212 247 319 56 67 73 125 177 186 170 213 168 260 353 310 268 260 239 222 241 246 257 298 45 287 298 314 312 311 317 323